Loisir ou Compétition : Rejoignez un Club de la Fédération

Résultats

RAPHAEL POIREE FILOU'S CUP 4eme ETAPE TROPHEE DU BEAUFORT

LES SAISIES

FS Mixte

Jury de Compétition

Délégué Technique :
 
D.T. Adjoint :
 
Dir. Epreuve :
 

Caractéristiques de la Piste

Piste :
 
Distance :
 
Point Haut :
 
Point Bas :
 
Montée Tot. :
 
Montée Max. :
 
Homologation :
 

Pénalité Appliquée :
 
Coefficient :
 

Catégorie :
BEN
Style :
 

27/01/13 - FSAT0062

CltDosClt/CatCodeAnNom PrénomComClubTempsEcartPoints
12031/BENFFS26602932001ROUSSET GASPARDSALA FECLAZ03:57.900:00.0
22142/BENFFS26604122001GIACHINO GIANNISASC PEISEY04:19.900:22.0
32233/BENFFS26604692001PERROT ERICSASC PEISEY04:25.800:27.9
42474/BENFFS26602832001HERICHER ANTOINESALA FECLAZ04:29.200:31.3
52445/BENFFS26492072001VEILLET NIKOLASSASC MERIBEL04:31.300:33.4
62276/BENFFS26658472002BERJOAN ROBINSALA FECLAZ04:33.800:35.9
72067/BENFFS26451752001VERDAN JORISSALA FECLAZ04:34.700:36.8
82298/BENFFS26518242002CULLET VICTORSASC MENUIRES04:39.000:41.1
92499/BENFFS26544072001GUIGONNET VINCENTSASC MENUIRES04:39.500:41.6
1021010/BENFFS26602772001[I]COLIGNON NOÉSALA FECLAZ04:43.300:45.4
1123711/BENFFS26614352002DUC GONINAZ ENZOSASC ARECHES04:43.600:45.7
1222212/BENFFS26564242002BENJAMIN NATHANSACN REVARD04:45.100:47.2
131501/BENFFS26395692001[I]HENAFF ELOÏSESASC ARECHES04:45.300:47.4
141672/BENFFS26447192002RICHON CAPUCINESALA FECLAZ04:45.600:47.7
1523513/BENFFS26395772001ANSELME MARTIN AYMERICSASC ARECHES04:46.300:48.4
1623414/BENFFS26502562002JACQUART BAPTISTESASC MERIBEL04:47.200:49.3
1722815/BENFFS26630082001GAREL MATHISSALA FECLAZ04:47.300:49.4
1822116/BENFFS26602902001PERRIER OSCARSALA FECLAZ04:47.400:49.5
1921817/BENFFS26604702001[I]MOLLARET MATTÉOSASC PEISEY04:51.300:53.4
2023318/BENFFS26464772001ROUX SVENSASC MENUIRES04:51.700:53.8
2120019/BENFFS26435162001PEUDON STEVENSASC MERIBEL04:52.600:54.7
2222020/BENFFS26466242002BLANC BAPTISTESASC COURCHEVEL04:52.800:54.9
231923/BENFFS26593222001RAINA MARIONSASC VALLOIRE04:53.900:56.0
241984/BENFFS26435662001LEMENAGER ELISASASC MERIBEL04:54.000:56.1
251595/BENFFS26466692001ALDA MANONSASC MERIBEL04:56.200:58.3
2624221/BENFFS26661022001JACQUET CORENTINSASC ARECHES04:57.200:59.3
2749422/BENFFS26559012002DUCOURET BAZILSASC BOZEL04:57.300:59.4
2849623/BENFFS26602952001VOLLUET MANOLINSALA FECLAZ04:59.101:01.2
2949324/BENFFS26397592001FRANCOIS AXELSASC COURCHEVEL04:59.801:01.9
301746/BENFFS26609642001GONTHARET MARIESASC PEISEY05:00.301:02.4
3121325/BENFFS26602372002JAY THOMASSASC MENUIRES05:00.501:02.6
321787/BENFFS26470722001RAVIER LIANASASC MERIBEL05:03.001:05.1
3321926/BENFFS26387242001ROCHEDY BENJAMINSASC COURCHEVEL05:03.101:05.2
3421527/BENFFS26665972002CARTAIS MICKAELSASC PEISEY05:03.201:05.3
3523128/BENFFS26454182002[I]MEILLEUR KILLIANSASC ARECHES05:04.501:06.6
3623829/BENFFS26614372002[I]COMBAZ AXELSASC ARECHES05:04.701:06.8
3721230/BENFFS26602912001RENAUX QUENTINSALA FECLAZ05:05.101:07.2
381808/BENFFS26614382001FAVRE FLORINESASC ARECHES05:06.801:08.9
391999/BENFFS26668122002TAFFIN NINASASC PEISEY05:08.101:10.2
4016210/BENFFS26489852002MANCINI CHARLOTTESACN REVARD05:08.901:11.0
4120431/BENFFS26606082001PLANET ANTOINESALA FECLAZ05:09.101:11.2
4220732/BENFFS26656252001FAIVRE MERLINSALA FECLAZ05:12.601:14.7
4325033/BENFFS26522782002MARTIN ENRIQUESASC MERIBEL05:13.701:15.8
4415311/BENFFS26614362001COMBAZ TIPHAINESASC ARECHES05:14.401:16.5
4518512/BENFFS26516212001BERNARD GUILLON JULIESACN REVARD05:16.001:18.1
4624134/BENFFS26661072001BOUCHAGE JOSSELINSASC ARECHES05:16.401:18.5
4721135/BENFFS26452592002BOUVARD ERWANSASC ARECHES05:17.301:19.4
4821736/BENFFS26622382001GRIFFON BENJAMINSASC CHAMPAGNY05:18.001:20.1
4915713/BENFFS26549632002FANTIN LAURASACN REVARD05:19.001:21.1
5024537/BENFFS26472472001SOLLIER JUSTINSASC MENUIRES05:21.601:23.7
5117114/BENFFS26518192002DUCOL CLEMENCESASC MENUIRES05:22.501:24.6
5217715/BENFFS26602812001GERODOLLE PAULINESALA FECLAZ05:22.701:24.8
5316316/BENFFS26617952002GACHET RIVKASASC ARECHES05:24.101:26.2
5424038/BENFFS26658572002RICHON MASSIMOSALA FECLAZ05:26.001:28.1
5516617/BENFFS26559032002BERTRAND FANNYSASC BOZEL05:26.401:28.5
5616118/BENFFS26606062001ROUDNITSKA NOASALA FECLAZ05:28.401:30.5
5717919/BENFFS26443392002SIMON FLORINESACS SAISIES05:32.601:34.7
5820239/BENFFS26602742001BAZERQUE DAMIENSALA FECLAZ05:33.401:35.5
5917320/BENFFS26457232001CADARS BOIS LOUSASC VALLOIRE05:34.001:36.1
6018421/BENFFS26489722002JAUBERTIE PAJOT FIONASASC CHAMPAGNY05:38.001:40.1
6119722/BENFFS26604072002[I]POCCARD ROMANESASC PEISEY05:38.901:41.0
6249740/BENFFS26602852001LE BLANC MILOSALA FECLAZ05:39.501:41.6
6322541/BENFFS26658482002BERMOND ELLIOTSALA FECLAZ05:42.601:44.7
6418923/BENFFS26436802002VIENNET ELISASASC VALLOIRE05:42.801:44.9
6516524/BENFFS26634502002GRISNAUX YSALINESASC MENUIRES05:43.001:45.1
6616425/BENFFS26658492002BERMOND EMMASALA FECLAZ05:43.101:45.2
6720142/BENFFS26604732002[I]MARCHAND ANTOINESASC PEISEY05:45.501:47.6
6815526/BENFFS26602892001PERRETTE ANOUKSALA FECLAZ05:48.801:50.9
6924643/BENFFS26677542002[I]VIEILLE-MARCHISET MARIUSSASC PEISEY05:49.201:51.3
7023044/BENFFS26618992001BUENO GASPARDSALA FECLAZ05:50.101:52.2
7118327/BENFFS26460962002MARQUANT LEHNASACS SAISIES05:51.001:53.1
7215628/BENFFS26513102002CONVARD EMILIESASC COURCHEVEL05:54.401:56.5
7316829/BENFFS26454162002BESSON ALEXIASASC ARECHES05:56.301:58.4
7419030/BENFFS26497962002REY CHARLOTTESASC COURCHEVEL05:57.001:59.1
7517631/BENFFS26578592002BONNEFOY CUDRAZ LILASSASC COURCHEVEL05:59.302:01.4
7618132/BENFFS26617962002CONSTANT ELISESASC ARECHES06:02.902:05.0
7723945/BENFFS26651722002GARCIA TITOUANSASC BOZEL06:07.202:09.3
7819333/BENFFS26648912002BELLON MARGAUXSASC CHAMPAGNY06:07.902:10.0
7920846/BENFFS26694862002[I]VALLAT LEOPOLDSASC COURCHEVEL06:08.202:10.3
8019134/BENFFS26661062002VIGNEAU LUCIESASC ARECHES06:09.002:11.1
8117035/BENFFS26661052002[I]VIARD CHLOESASC ARECHES06:10.502:12.6
8249247/BENFFS26666422002VILLIOD ANDYSASC MENUIRES06:10.802:12.9
8318636/BENFFS26668072001[I]FERNANDEZ ADÈLESASC PEISEY06:17.002:19.1
8417537/BENFFS26661952002COGERINO AUDREYSASC COURCHEVEL06:28.102:30.2
8522448/BENFFS26602362002MERLIN TRISTANSASC MENUIRES06:29.402:31.5
8619438/BENFFS26658612002[I]SERAFIN-BEAUTE AMANDINESALA FECLAZ06:31.602:33.7
8715839/BENFFS26443692002AUDINEAU CARLASACS SAISIES06:43.902:46.0
8815140/BENFFS26604062002MENGOLLI ALICIASASC PEISEY06:48.502:50.6
8916941/BENFFS26683752002DUNAND JULIANESASC CHAMPAGNY06:56.302:58.4
9019542/BENFFS26671462002POIRIER CARLASALA FECLAZ07:05.203:07.3
9116043/BENFFS26473642002CHEVALLIER CURT LISASASC BOZEL07:37.003:39.1
9215244/BENFFS26677912002LEAN JENNIFERSASC COURCHEVEL08:11.604:13.7
9318245/BENFFS26651702002VERCHERE MARGUERITESASC BOZEL08:24.004:26.1
Non partants
154FFS26414712001OLLIER LISESASC VALLOIRE
172FFS26387062001PICCARD ALICIASACS SAISIES
187FFS26690822002ELOY LILOUSASC COURCHEVEL
188FFS26632252001BAL VILLET MATHILDESACS SAISIES
196FFS26624682002MOLIERE INESSASC BOZEL
205FFS26589232001GRONNWALD ADRIENSASC VALLOIRE
209FFS26602942001THIBAULT SYLVAINSALA FECLAZ
216FFS26658592002SADOINE DANIELSALA FECLAZ
226FFS26496512002GERARDIN FLORENTSASC PRALOGNAN
232FFS26644812001DERIMAY ANTOINESASC ARECHES
236FFS26544062001PETEX TOMSASC MENUIRES
243LCN113568802002CHENU ELIZÉESASC PEISEY
248FFS26617942001BOCHET ARTHURSASC ARECHES
498FFS26491962001FAVIER MATHISSACS SAISIES